Time,TemperatureF,DewpointF,PressureIn,WindDirection,WindDirectionDegrees,WindSpeedMPH,WindSpeedGustMPH,Humidity,HourlyPrecipIn,Conditions,Clouds,dailyrainin,SoftwareType,DateUTC
2013-02-01 00:02:00,37.8,36.2,30.17,SW,232,0.0,0.0,94,0.00,,OVC013,0.04,VWS V14.01,2013-02-01 08:02:00,
2013-02-01 00:07:00,37.6,36.0,30.17,SW,232,0.0,0.0,94,0.00,,OVC013,0.00,VWS V14.01,2013-02-01 08:07:00,
2013-02-01 00:12:00,37.5,35.9,30.17,SW,232,0.0,0.0,94,0.00,,OVC013,0.00,VWS V14.01,2013-02-01 08:12:00,
2013-02-01 00:17:00,37.5,35.9,30.17,SW,232,0.0,0.0,94,0.00,,OVC013,0.00,VWS V14.01,2013-02-01 08:17:00,
2013-02-01 00:22:00,37.5,35.9,30.17,SW,232,0.0,0.0,94,0.00,,OVC013,0.00,VWS V14.01,2013-02-01 08:22:00,
2013-02-01 00:27:00,37.3,35.7,30.17,SW,232,0.0,0.0,94,0.00,,OVC013,0.00,VWS V14.01,2013-02-01 08:27:00,
2013-02-01 00:32:00,37.5,35.9,30.17,SW,232,0.0,0.0,94,0.00,,OVC013,0.00,VWS V14.01,2013-02-01 08:32:00,
2013-02-01 00:37:00,37.5,36.2,30.17,SW,232,0.0,0.0,95,0.00,,OVC013,0.00,VWS V14.01,2013-02-01 08:37:00,
2013-02-01 00:42:00,37.5,36.2,30.17,SW,232,0.0,0.0,95,0.00,,OVC013,0.00,VWS V14.01,2013-02-01 08:42:00,
2013-02-01 00:47:00,37.5,36.2,30.18,SW,232,0.0,0.0,95,0.00,,OVC013,0.00,VWS V14.01,2013-02-01 08:47:00,
2013-02-01 00:52:00,37.5,36.2,30.18,SW,232,0.0,0.0,95,0.00,,OVC013,0.00,VWS V14.01,2013-02-01 08:52:00,
2013-02-01 00:57:00,37.5,36.2,30.18,SW,232,0.0,0.0,95,0.00,,OVC013,0.00,VWS V14.01,2013-02-01 08:57:00,
2013-02-01 01:02:00,37.6,36.3,30.17,SW,232,0.0,0.0,95,0.00,,OVC013,0.00,VWS V14.01,2013-02-01 09:02:00,
2013-02-01 01:08:00,37.8,36.5,30.17,SW,232,0.0,0.0,95,0.00,,OVC013,0.00,VWS V14.01,2013-02-01 09:08:00,
2013-02-01 01:13:00,37.8,36.5,30.17,SW,232,0.0,0.0,95,0.00,,OVC013,0.00,VWS V14.01,2013-02-01 09:13:00,
2013-02-01 01:18:00,37.9,36.6,30.18,SW,232,0.0,0.0,95,0.00,,OVC013,0.00,VWS V14.01,2013-02-01 09:18:00,
2013-02-01 01:23:00,37.9,36.6,30.18,SW,232,0.0,0.0,95,0.00,,OVC013,0.00,VWS V14.01,2013-02-01 09:23:00,
2013-02-01 01:28:00,37.9,36.6,30.18,SW,232,0.0,0.0,95,0.00,,OVC013,0.00,VWS V14.01,2013-02-01 09:28:00,
2013-02-01 01:33:00,38.0,36.7,30.18,SW,232,0.0,0.0,95,0.00,,OVC013,0.00,VWS V14.01,2013-02-01 09:33:00,
2013-02-01 01:38:00,38.0,36.4,30.18,SW,232,0.0,0.0,94,0.00,,OVC013,0.00,VWS V14.01,2013-02-01 09:38:00,
2013-02-01 01:43:00,38.0,36.4,30.18,SW,232,0.0,0.0,94,0.00,,OVC013,0.00,VWS V14.01,2013-02-01 09:43:00,
2013-02-01 01:49:00,38.0,36.2,30.19,SW,232,0.0,0.0,93,0.00,,OVC013,0.00,VWS V14.01,2013-02-01 09:49:00,
2013-02-01 01:54:00,37.9,36.1,30.19,SW,232,0.0,0.0,93,0.00,,OVC013,0.00,VWS V14.01,2013-02-01 09:54:00,
2013-02-01 01:59:00,37.8,36.0,30.19,SW,232,0.0,0.0,93,0.00,,OVC013,0.00,VWS V14.01,2013-02-01 09:59:00,
2013-02-01 02:04:00,37.8,36.0,30.19,SW,232,0.0,0.0,93,0.00,,OVC011,0.00,VWS V14.01,2013-02-01 10:04:00,
2013-02-01 02:09:00,37.6,35.8,30.19,SW,232,1.0,1.0,93,0.00,,OVC011,0.00,VWS V14.01,2013-02-01 10:09:00,
2013-02-01 02:14:00,37.6,35.8,30.19,SW,232,0.0,1.0,93,0.00,,OVC011,0.00,VWS V14.01,2013-02-01 10:14:00,
2013-02-01 02:19:00,37.6,35.8,30.19,SW,232,0.0,0.0,93,0.00,,OVC011,0.00,VWS V14.01,2013-02-01 10:19:00,
2013-02-01 02:24:00,37.5,35.7,30.19,SW,232,1.0,1.0,93,0.00,,OVC011,0.00,VWS V14.01,2013-02-01 10:24:00,
2013-02-01 02:29:00,37.5,35.7,30.19,SW,232,0.0,0.0,93,0.00,,OVC011,0.00,VWS V14.01,2013-02-01 10:29:00,
2013-02-01 02:34:00,37.5,35.7,30.20,SW,232,0.0,0.0,93,0.00,,OVC011,0.00,VWS V14.01,2013-02-01 10:34:00,
2013-02-01 02:39:00,37.3,35.2,30.20,SW,232,0.0,0.0,92,0.00,,OVC011,0.00,VWS V14.01,2013-02-01 10:39:00,
2013-02-01 02:44:00,37.3,35.2,30.20,SW,232,0.0,0.0,92,0.00,,OVC011,0.00,VWS V14.01,2013-02-01 10:44:00,
2013-02-01 02:50:00,37.3,35.2,30.20,SW,232,0.0,0.0,92,0.00,,OVC011,0.00,VWS V14.01,2013-02-01 10:50:00,
2013-02-01 02:55:00,37.3,35.2,30.20,SW,232,0.0,0.0,92,0.00,,OVC011,0.00,VWS V14.01,2013-02-01 10:55:00,
2013-02-01 03:00:00,37.2,35.1,30.20,SW,232,0.0,0.0,92,0.00,,OVC011,0.00,VWS V14.01,2013-02-01 11:00:00,
2013-02-01 03:05:00,37.2,35.1,30.20,SW,232,0.0,0.0,92,0.00,,OVC011,0.00,VWS V14.01,2013-02-01 11:05:00,
2013-02-01 03:11:00,37.2,35.1,30.20,SW,232,0.0,0.0,92,0.00,,OVC011,0.00,VWS V14.01,2013-02-01 11:11:00,
2013-02-01 03:16:00,37.0,34.9,30.20,SW,232,0.0,0.0,92,0.00,,OVC011,0.00,VWS V14.01,2013-02-01 11:16:00,
2013-02-01 03:21:00,37.0,34.9,30.20,SW,232,0.0,0.0,92,0.00,,OVC011,0.00,VWS V14.01,2013-02-01 11:21:00,
2013-02-01 03:26:00,36.9,34.8,30.20,SW,232,0.0,0.0,92,0.00,,OVC011,0.00,VWS V14.01,2013-02-01 11:26:00,
2013-02-01 03:31:00,37.0,34.9,30.20,SW,232,0.0,0.0,92,0.00,,OVC011,0.00,VWS V14.01,2013-02-01 11:31:00,
2013-02-01 03:36:00,37.0,34.9,30.20,SW,232,0.0,0.0,92,0.00,,OVC011,0.00,VWS V14.01,2013-02-01 11:36:00,
2013-02-01 03:41:00,37.0,34.9,30.20,SW,232,0.0,0.0,92,0.00,,OVC011,0.00,VWS V14.01,2013-02-01 11:41:00,
2013-02-01 03:46:00,37.0,34.9,30.21,SW,232,0.0,0.0,92,0.00,,OVC011,0.00,VWS V14.01,2013-02-01 11:46:00,
2013-02-01 03:52:00,36.9,34.8,30.21,SW,232,0.0,0.0,92,0.00,,OVC011,0.00,VWS V14.01,2013-02-01 11:52:00,
2013-02-01 03:57:00,36.8,34.7,30.21,SW,232,0.0,0.0,92,0.00,,OVC011,0.00,VWS V14.01,2013-02-01 11:57:00,
2013-02-01 04:02:00,36.8,34.7,30.21,SW,232,0.0,0.0,92,0.00,,OVC009,0.00,VWS V14.01,2013-02-01 12:02:00,
2013-02-01 04:07:00,36.8,34.7,30.21,SW,232,0.0,0.0,92,0.00,,OVC009,0.00,VWS V14.01,2013-02-01 12:07:00,
2013-02-01 04:12:00,36.8,34.7,30.21,SW,232,0.0,0.0,92,0.00,,OVC009,0.00,VWS V14.01,2013-02-01 12:12:00,
2013-02-01 04:17:00,36.6,34.5,30.22,SW,232,0.0,0.0,92,0.00,,OVC009,0.00,VWS V14.01,2013-02-01 12:17:00,
2013-02-01 04:22:00,36.6,34.5,30.22,SW,232,0.0,0.0,92,0.00,,OVC009,0.00,VWS V14.01,2013-02-01 12:22:00,
2013-02-01 04:27:00,36.6,34.5,30.22,SW,232,0.0,0.0,92,0.00,,OVC009,0.00,VWS V14.01,2013-02-01 12:27:00,
2013-02-01 04:33:00,36.5,34.4,30.22,SW,232,0.0,0.0,92,0.00,,OVC009,0.00,VWS V14.01,2013-02-01 12:33:00,
2013-02-01 04:38:00,36.5,34.4,30.22,SW,232,0.0,0.0,92,0.00,,OVC009,0.00,VWS V14.01,2013-02-01 12:38:00,
2013-02-01 04:43:00,36.5,34.4,30.22,SW,232,0.0,0.0,92,0.00,,OVC009,0.00,VWS V14.01,2013-02-01 12:43:00,
2013-02-01 04:48:00,36.3,34.2,30.21,SW,232,0.0,0.0,92,0.00,,OVC009,0.00,VWS V14.01,2013-02-01 12:48:00,
2013-02-01 04:53:00,36.3,34.2,30.21,SW,232,0.0,0.0,92,0.00,,OVC009,0.00,VWS V14.01,2013-02-01 12:53:00,
2013-02-01 04:58:00,36.3,34.2,30.21,SW,232,0.0,0.0,92,0.00,,OVC009,0.00,VWS V14.01,2013-02-01 12:58:00,
2013-02-01 05:03:00,36.2,34.1,30.22,SW,232,0.0,0.0,92,0.00,,OVC007,0.00,VWS V14.01,2013-02-01 13:03:00,
2013-02-01 05:08:00,36.2,34.1,30.22,SW,232,0.0,0.0,92,0.00,,OVC007,0.00,VWS V14.01,2013-02-01 13:08:00,
2013-02-01 05:13:00,36.2,34.1,30.22,SW,232,0.0,0.0,92,0.00,,OVC007,0.00,VWS V14.01,2013-02-01 13:13:00,
2013-02-01 05:18:00,36.0,33.9,30.22,SW,232,0.0,0.0,92,0.00,,OVC007,0.00,VWS V14.01,2013-02-01 13:18:00,
2013-02-01 05:24:00,36.0,33.9,30.22,SW,232,0.0,0.0,92,0.00,,OVC007,0.00,VWS V14.01,2013-02-01 13:24:00,
2013-02-01 05:29:00,35.9,33.8,30.22,SW,232,0.0,0.0,92,0.00,,OVC007,0.00,VWS V14.01,2013-02-01 13:29:00,
2013-02-01 05:34:00,35.9,33.8,30.22,SW,232,0.0,0.0,92,0.00,,OVC007,0.00,VWS V14.01,2013-02-01 13:34:00,
2013-02-01 05:39:00,35.9,33.8,30.22,SW,232,0.0,0.0,92,0.00,,OVC007,0.00,VWS V14.01,2013-02-01 13:39:00,
2013-02-01 05:44:00,35.7,33.6,30.22,SW,232,0.0,0.0,92,0.00,,OVC007,0.00,VWS V14.01,2013-02-01 13:44:00,
2013-02-01 05:49:00,35.9,33.8,30.23,SW,232,0.0,0.0,92,0.00,,OVC007,0.00,VWS V14.01,2013-02-01 13:49:00,
2013-02-01 05:54:00,35.7,33.6,30.23,SW,232,0.0,0.0,92,0.00,,OVC007,0.00,VWS V14.01,2013-02-01 13:54:00,
2013-02-01 06:00:00,35.7,33.6,30.23,SW,232,0.0,0.0,92,0.00,,OVC007,0.00,VWS V14.01,2013-02-01 14:00:00,
2013-02-01 06:05:00,35.7,33.6,30.23,SW,232,0.0,0.0,92,0.00,,OVC005,0.00,VWS V14.01,2013-02-01 14:05:00,
2013-02-01 06:10:00,35.9,34.1,30.23,SW,232,0.0,0.0,93,0.00,,OVC005,0.00,VWS V14.01,2013-02-01 14:10:00,
2013-02-01 06:15:00,35.9,33.8,30.23,SW,232,0.0,0.0,92,0.00,,OVC005,0.00,VWS V14.01,2013-02-01 14:15:00,
2013-02-01 06:20:00,35.9,33.8,30.24,SW,232,0.0,0.0,92,0.00,,OVC005,0.00,VWS V14.01,2013-02-01 14:20:00,
2013-02-01 06:25:00,35.7,33.6,30.24,SW,232,0.0,0.0,92,0.00,,OVC005,0.00,VWS V14.01,2013-02-01 14:25:00,
2013-02-01 06:30:00,35.7,33.6,30.24,SW,232,0.0,0.0,92,0.00,,OVC005,0.00,VWS V14.01,2013-02-01 14:30:00,
2013-02-01 06:35:00,35.7,33.6,30.25,SW,232,0.0,0.0,92,0.00,,OVC005,0.00,VWS V14.01,2013-02-01 14:35:00,
2013-02-01 06:40:00,35.7,33.6,30.25,SW,232,0.0,0.0,92,0.00,,OVC005,0.00,VWS V14.01,2013-02-01 14:40:00,
2013-02-01 06:45:00,35.7,33.6,30.25,SW,232,0.0,0.0,92,0.00,,OVC005,0.00,VWS V14.01,2013-02-01 14:45:00,
2013-02-01 06:50:00,35.7,33.6,30.25,SW,232,0.0,0.0,92,0.00,,OVC005,0.00,VWS V14.01,2013-02-01 14:50:00,
2013-02-01 06:55:00,35.6,33.5,30.25,SW,232,0.0,0.0,92,0.00,,OVC005,0.00,VWS V14.01,2013-02-01 14:55:00,
2013-02-01 07:01:00,35.6,33.8,30.25,SW,232,0.0,0.0,93,0.00,,OVC005,0.00,VWS V14.01,2013-02-01 15:01:00,
2013-02-01 07:06:00,35.6,33.8,30.25,SW,232,0.0,0.0,93,0.00,,OVC005,0.00,VWS V14.01,2013-02-01 15:06:00,
2013-02-01 07:11:00,35.6,33.8,30.25,SW,232,0.0,0.0,93,0.00,,OVC005,0.00,VWS V14.01,2013-02-01 15:11:00,
2013-02-01 07:16:00,35.6,33.8,30.25,SW,232,0.0,0.0,93,0.00,,OVC005,0.00,VWS V14.01,2013-02-01 15:16:00,
2013-02-01 07:21:00,35.4,33.6,30.26,SW,232,0.0,0.0,93,0.00,,OVC005,0.00,VWS V14.01,2013-02-01 15:21:00,
2013-02-01 07:26:00,35.4,33.6,30.26,SW,232,0.0,0.0,93,0.00,,OVC005,0.00,VWS V14.01,2013-02-01 15:26:00,
2013-02-01 07:31:00,35.4,33.6,30.26,SW,232,0.0,0.0,93,0.00,,OVC005,0.00,VWS V14.01,2013-02-01 15:31:00,
2013-02-01 07:36:00,35.4,33.6,30.27,SW,232,0.0,0.0,93,0.00,,OVC005,0.00,VWS V14.01,2013-02-01 15:36:00,
2013-02-01 07:41:00,35.6,33.8,30.27,SW,232,0.0,0.0,93,0.00,,OVC005,0.00,VWS V14.01,2013-02-01 15:41:00,
2013-02-01 07:46:00,35.6,33.8,30.27,SW,232,0.0,0.0,93,0.00,,OVC005,0.00,VWS V14.01,2013-02-01 15:46:00,
2013-02-01 07:51:00,35.6,33.8,30.27,SW,232,0.0,0.0,93,0.00,,OVC005,0.00,VWS V14.01,2013-02-01 15:51:00,
2013-02-01 07:56:00,35.6,33.8,30.27,SW,232,0.0,0.0,93,0.00,,OVC005,0.00,VWS V14.01,2013-02-01 15:56:00,
2013-02-01 08:01:00,35.6,33.8,30.27,SW,232,0.0,0.0,93,0.00,,,0.00,VWS V14.01,2013-02-01 16:01:00,
2013-02-01 08:06:00,35.6,33.8,30.27,SW,232,0.0,0.0,93,0.00,,,0.00,VWS V14.01,2013-02-01 16:06:00,
2013-02-01 08:12:00,35.7,33.9,30.27,SW,232,0.0,0.0,93,0.00,,,0.00,VWS V14.01,2013-02-01 16:12:00,
2013-02-01 08:17:00,35.7,33.9,30.28,SW,232,0.0,0.0,93,0.00,,,0.00,VWS V14.01,2013-02-01 16:17:00,
2013-02-01 08:22:00,35.7,33.9,30.28,SW,232,0.0,0.0,93,0.00,,,0.00,VWS V14.01,2013-02-01 16:22:00,
2013-02-01 08:27:00,35.9,34.1,30.28,SW,232,0.0,0.0,93,0.00,,,0.00,VWS V14.01,2013-02-01 16:27:00,
2013-02-01 08:32:00,35.9,33.8,30.28,SW,232,0.0,0.0,92,0.00,,,0.00,VWS V14.01,2013-02-01 16:32:00,
2013-02-01 08:37:00,35.9,33.8,30.28,SW,232,0.0,0.0,92,0.00,,,0.00,VWS V14.01,2013-02-01 16:37:00,
2013-02-01 08:42:00,36.0,33.9,30.28,SW,232,0.0,0.0,92,0.00,,,0.00,VWS V14.01,2013-02-01 16:42:00,
2013-02-01 08:47:00,36.2,34.1,30.29,SW,232,0.0,0.0,92,0.00,,,0.00,VWS V14.01,2013-02-01 16:47:00,
2013-02-01 08:53:00,36.3,34.2,30.29,SW,232,0.0,0.0,92,0.00,,,0.00,VWS V14.01,2013-02-01 16:53:00,
2013-02-01 08:58:00,36.5,34.4,30.29,SW,232,0.0,0.0,92,0.00,,,0.00,VWS V14.01,2013-02-01 16:58:00,
2013-02-01 09:03:00,36.6,34.5,30.29,SW,232,0.0,0.0,92,0.00,,OVC009,0.00,VWS V14.01,2013-02-01 17:03:00,
2013-02-01 09:08:00,36.8,34.7,30.29,SW,232,0.0,0.0,92,0.00,,OVC009,0.00,VWS V14.01,2013-02-01 17:08:00,
2013-02-01 09:13:00,36.8,34.4,30.29,SW,232,0.0,0.0,91,0.00,,OVC009,0.00,VWS V14.01,2013-02-01 17:13:00,
2013-02-01 09:18:00,37.0,34.6,30.30,SW,232,0.0,0.0,91,0.00,,OVC009,0.00,VWS V14.01,2013-02-01 17:18:00,
2013-02-01 09:23:00,37.0,34.6,30.30,SW,232,0.0,0.0,91,0.00,,OVC009,0.00,VWS V14.01,2013-02-01 17:23:00,
2013-02-01 09:28:00,37.0,34.6,30.30,SW,232,0.0,0.0,91,0.00,,OVC009,0.00,VWS V14.01,2013-02-01 17:28:00,
2013-02-01 09:34:00,37.2,34.8,30.30,SW,232,0.0,0.0,91,0.00,,OVC009,0.00,VWS V14.01,2013-02-01 17:34:00,
2013-02-01 09:39:00,37.3,34.4,30.30,SW,232,0.0,0.0,89,0.00,,OVC009,0.00,VWS V14.01,2013-02-01 17:39:00,
2013-02-01 09:44:00,37.3,34.4,30.30,SW,232,0.0,0.0,89,0.00,,OVC009,0.00,VWS V14.01,2013-02-01 17:44:00,
2013-02-01 09:49:00,37.5,34.6,30.30,SW,232,0.0,0.0,89,0.00,,OVC009,0.00,VWS V14.01,2013-02-01 17:49:00,
2013-02-01 09:54:00,37.6,34.7,30.30,SW,232,0.0,0.0,89,0.00,,OVC009,0.00,VWS V14.01,2013-02-01 17:54:00,
2013-02-01 09:59:00,37.8,34.9,30.30,SW,232,0.0,0.0,89,0.00,,OVC009,0.00,VWS V14.01,2013-02-01 17:59:00,
2013-02-01 10:04:00,37.8,34.9,30.30,SW,232,0.0,0.0,89,0.00,,OVC009,0.00,VWS V14.01,2013-02-01 18:04:00,
2013-02-01 10:09:00,37.8,34.3,30.30,SW,232,0.0,0.0,87,0.00,,OVC009,0.00,VWS V14.01,2013-02-01 18:09:00,
2013-02-01 10:14:00,37.8,34.3,30.30,SW,232,0.0,0.0,87,0.00,,OVC009,0.00,VWS V14.01,2013-02-01 18:14:00,
2013-02-01 10:19:00,37.9,34.4,30.31,SW,232,0.0,0.0,87,0.00,,OVC009,0.00,VWS V14.01,2013-02-01 18:19:00,
2013-02-01 10:25:00,37.9,34.4,30.31,SW,232,0.0,0.0,87,0.00,,OVC009,0.00,VWS V14.01,2013-02-01 18:25:00,
2013-02-01 10:30:00,38.3,34.8,30.31,SW,232,0.0,0.0,87,0.00,,OVC009,0.00,VWS V14.01,2013-02-01 18:30:00,
2013-02-01 10:35:00,38.8,35.0,30.31,SW,232,0.0,0.0,86,0.00,,OVC009,0.00,VWS V14.01,2013-02-01 18:35:00,
2013-02-01 10:40:00,39.0,35.2,30.31,SW,232,0.0,0.0,86,0.00,,OVC009,0.00,VWS V14.01,2013-02-01 18:40:00,
2013-02-01 10:45:00,39.0,34.6,30.31,SW,232,0.0,0.0,84,0.00,,OVC009,0.00,VWS V14.01,2013-02-01 18:45:00,
2013-02-01 10:50:00,39.3,34.6,30.31,SW,232,0.0,0.0,83,0.00,,OVC009,0.00,VWS V14.01,2013-02-01 18:50:00,
2013-02-01 10:55:00,39.2,34.5,30.31,SW,232,0.0,0.0,83,0.00,,OVC009,0.00,VWS V14.01,2013-02-01 18:55:00,
2013-02-01 11:00:00,39.0,34.3,30.31,SW,232,0.0,0.0,83,0.00,,OVC009,0.00,VWS V14.01,2013-02-01 19:00:00,
2013-02-01 11:06:00,39.0,34.3,30.32,SW,232,0.0,0.0,83,0.00,,OVC009,0.00,VWS V14.01,2013-02-01 19:06:00,
2013-02-01 11:11:00,39.0,34.3,30.32,SW,232,0.0,0.0,83,0.00,,OVC009,0.00,VWS V14.01,2013-02-01 19:11:00,
2013-02-01 11:16:00,38.8,34.1,30.32,SW,232,0.0,0.0,83,0.00,,OVC009,0.00,VWS V14.01,2013-02-01 19:16:00,
2013-02-01 11:21:00,38.9,34.2,30.32,SW,232,0.0,0.0,83,0.00,,OVC009,0.00,VWS V14.01,2013-02-01 19:21:00,
2013-02-01 11:26:00,39.0,34.3,30.32,SW,232,0.0,0.0,83,0.00,,OVC009,0.00,VWS V14.01,2013-02-01 19:26:00,
2013-02-01 11:31:00,39.2,34.5,30.32,SW,232,0.0,0.0,83,0.00,,OVC009,0.00,VWS V14.01,2013-02-01 19:31:00,
2013-02-01 11:36:00,39.2,34.5,30.32,SW,232,0.0,0.0,83,0.00,,OVC009,0.00,VWS V14.01,2013-02-01 19:36:00,
2013-02-01 11:41:00,39.8,35.1,30.32,SW,232,0.0,0.0,83,0.00,,OVC009,0.00,VWS V14.01,2013-02-01 19:41:00,
2013-02-01 11:46:00,39.9,35.2,30.32,SW,232,0.0,0.0,83,0.00,,OVC009,0.00,VWS V14.01,2013-02-01 19:46:00,
2013-02-01 11:52:00,40.1,35.4,30.32,SW,232,0.0,0.0,83,0.00,,OVC009,0.00,VWS V14.01,2013-02-01 19:52:00,
2013-02-01 11:57:00,40.2,35.5,30.32,SW,232,0.0,0.0,83,0.00,,OVC009,0.00,VWS V14.01,2013-02-01 19:57:00,
2013-02-01 12:02:00,40.2,34.8,30.32,SW,232,0.0,0.0,81,0.00,,OVC013,0.00,VWS V14.01,2013-02-01 20:02:00,
2013-02-01 12:07:00,40.3,34.9,30.32,SW,232,0.0,0.0,81,0.00,,OVC013,0.00,VWS V14.01,2013-02-01 20:07:00,
2013-02-01 12:12:00,40.5,35.1,30.32,SW,232,0.0,0.0,81,0.00,,OVC013,0.00,VWS V14.01,2013-02-01 20:12:00,
2013-02-01 12:17:00,40.8,35.4,30.32,SW,232,0.0,0.0,81,0.00,,OVC013,0.00,VWS V14.01,2013-02-01 20:17:00,
2013-02-01 12:22:00,41.1,35.1,30.32,SW,232,0.0,0.0,79,0.00,,OVC013,0.00,VWS V14.01,2013-02-01 20:22:00,
2013-02-01 12:27:00,41.2,35.2,30.32,SW,232,0.0,0.0,79,0.00,,OVC013,0.00,VWS V14.01,2013-02-01 20:27:00,
2013-02-01 12:32:00,41.3,35.3,30.32,SW,232,0.0,0.0,79,0.00,,OVC013,0.00,VWS V14.01,2013-02-01 20:32:00,
2013-02-01 12:37:00,41.5,35.5,30.32,SW,232,0.0,0.0,79,0.00,,OVC013,0.00,VWS V14.01,2013-02-01 20:37:00,
2013-02-01 12:43:00,41.5,35.5,30.32,SW,232,0.0,0.0,79,0.00,,OVC013,0.00,VWS V14.01,2013-02-01 20:43:00,
2013-02-01 12:48:00,41.5,35.5,30.32,SW,232,0.0,0.0,79,0.00,,OVC013,0.00,VWS V14.01,2013-02-01 20:48:00,
2013-02-01 12:53:00,41.3,35.3,30.32,SW,232,0.0,0.0,79,0.00,,OVC013,0.00,VWS V14.01,2013-02-01 20:53:00,
2013-02-01 12:58:00,41.6,35.6,30.32,SW,232,0.0,0.0,79,0.00,,OVC013,0.00,VWS V14.01,2013-02-01 20:58:00,
2013-02-01 13:03:00,41.6,35.6,30.32,SW,232,0.0,0.0,79,0.00,,BKN015,0.00,VWS V14.01,2013-02-01 21:03:00,
2013-02-01 13:08:00,41.8,35.5,30.32,SW,232,0.0,0.0,78,0.00,,BKN015,0.00,VWS V14.01,2013-02-01 21:08:00,
2013-02-01 13:13:00,41.9,35.2,30.32,SW,232,0.0,0.0,77,0.00,,BKN015,0.00,VWS V14.01,2013-02-01 21:13:00,
2013-02-01 13:18:00,42.1,35.4,30.32,SW,232,0.0,0.0,77,0.00,,BKN015,0.00,VWS V14.01,2013-02-01 21:18:00,
2013-02-01 13:23:00,42.1,35.8,30.32,SW,232,0.0,0.0,78,0.00,,BKN015,0.00,VWS V14.01,2013-02-01 21:23:00,
2013-02-01 13:28:00,41.6,35.3,30.32,SW,232,0.0,0.0,78,0.00,,BKN015,0.00,VWS V14.01,2013-02-01 21:28:00,
2013-02-01 13:34:00,41.8,35.5,30.32,SW,232,0.0,0.0,78,0.00,,BKN015,0.00,VWS V14.01,2013-02-01 21:34:00,
2013-02-01 13:39:00,42.2,35.8,30.32,SW,232,0.0,0.0,78,0.00,,BKN015,0.00,VWS V14.01,2013-02-01 21:39:00,
2013-02-01 13:44:00,42.5,36.1,30.32,SW,232,0.0,0.0,78,0.00,,BKN015,0.00,VWS V14.01,2013-02-01 21:44:00,
2013-02-01 13:49:00,42.9,36.5,30.32,SW,232,0.0,0.0,78,0.00,,BKN015,0.00,VWS V14.01,2013-02-01 21:49:00,
2013-02-01 13:54:00,43.3,36.9,30.32,SW,232,0.0,1.0,78,0.00,,BKN015,0.00,VWS V14.01,2013-02-01 21:54:00,
2013-02-01 13:59:00,43.5,37.1,30.32,SW,232,0.0,0.0,78,0.00,,BKN015,0.00,VWS V14.01,2013-02-01 21:59:00,
2013-02-01 14:04:00,43.6,37.2,30.33,SW,232,0.0,0.0,78,0.00,,SCT018,0.00,VWS V14.01,2013-02-01 22:04:00,
2013-02-01 14:09:00,43.6,37.2,30.33,SW,232,1.0,1.0,78,0.00,,SCT018,0.00,VWS V14.01,2013-02-01 22:09:00,
2013-02-01 14:14:00,43.8,35.4,30.33,SW,232,2.0,2.0,72,0.00,,SCT018,0.00,VWS V14.01,2013-02-01 22:14:00,
2013-02-01 14:19:00,43.8,35.4,30.33,SW,232,0.0,0.0,72,0.00,,SCT018,0.00,VWS V14.01,2013-02-01 22:19:00,
2013-02-01 14:25:00,43.6,35.2,30.33,SW,232,3.0,3.0,72,0.00,,SCT018,0.00,VWS V14.01,2013-02-01 22:25:00,
2013-02-01 14:30:00,43.6,35.2,30.33,SW,232,0.0,0.0,72,0.00,,SCT018,0.00,VWS V14.01,2013-02-01 22:30:00,
2013-02-01 14:35:00,43.6,35.2,30.33,SW,232,0.0,0.0,72,0.00,,SCT018,0.00,VWS V14.01,2013-02-01 22:35:00,
2013-02-01 14:40:00,43.6,35.2,30.33,SW,232,1.0,1.0,72,0.00,,SCT018,0.00,VWS V14.01,2013-02-01 22:40:00,
2013-02-01 14:45:00,43.6,35.2,30.33,SW,232,1.0,1.0,72,0.00,,SCT018,0.00,VWS V14.01,2013-02-01 22:45:00,
2013-02-01 14:50:00,43.6,35.2,30.33,SW,232,0.0,0.0,72,0.00,,SCT018,0.00,VWS V14.01,2013-02-01 22:50:00,
2013-02-01 14:55:00,43.5,35.1,30.33,SW,232,1.0,2.0,72,0.00,,SCT018,0.00,VWS V14.01,2013-02-01 22:55:00,
2013-02-01 15:00:00,43.3,34.9,30.33,SW,232,2.0,2.0,72,0.00,,SCT018,0.00,VWS V14.01,2013-02-01 23:00:00,
2013-02-01 15:05:00,43.3,34.9,30.33,SW,232,0.0,0.0,72,0.00,,CLR,0.00,VWS V14.01,2013-02-01 23:05:00,
2013-02-01 15:10:00,43.3,34.9,30.33,SW,232,0.0,0.0,72,0.00,,CLR,0.00,VWS V14.01,2013-02-01 23:10:00,
2013-02-01 15:15:00,43.3,34.9,30.33,SW,232,0.0,0.0,72,0.00,,CLR,0.00,VWS V14.01,2013-02-01 23:15:00,
2013-02-01 15:20:00,43.5,35.1,30.33,SW,232,0.0,0.0,72,0.00,,CLR,0.00,VWS V14.01,2013-02-01 23:20:00,
2013-02-01 15:25:00,43.5,35.1,30.33,SW,232,0.0,0.0,72,0.00,,CLR,0.00,VWS V14.01,2013-02-01 23:25:00,
2013-02-01 15:31:00,43.3,34.9,30.33,SW,232,0.0,0.0,72,0.00,,CLR,0.00,VWS V14.01,2013-02-01 23:31:00,
2013-02-01 15:36:00,43.2,34.8,30.34,SW,232,0.0,0.0,72,0.00,,CLR,0.00,VWS V14.01,2013-02-01 23:36:00,
2013-02-01 15:41:00,43.1,34.7,30.34,SW,232,0.0,0.0,72,0.00,,CLR,0.00,VWS V14.01,2013-02-01 23:41:00,
2013-02-01 15:46:00,43.1,34.7,30.34,SW,232,0.0,1.0,72,0.00,,CLR,0.00,VWS V14.01,2013-02-01 23:46:00,
2013-02-01 15:51:00,42.9,34.5,30.34,SW,232,0.0,0.0,72,0.00,,CLR,0.00,VWS V14.01,2013-02-01 23:51:00,
2013-02-01 15:56:00,42.9,34.5,30.34,SW,232,0.0,0.0,72,0.00,,CLR,0.00,VWS V14.01,2013-02-01 23:56:00,
2013-02-01 16:01:00,42.9,34.5,30.34,SW,232,0.0,0.0,72,0.00,,CLR,0.00,VWS V14.01,2013-02-02 00:01:00,
2013-02-01 16:06:00,42.8,34.4,30.34,SW,232,0.0,0.0,72,0.00,,CLR,0.00,VWS V14.01,2013-02-02 00:06:00,
2013-02-01 16:11:00,42.6,34.2,30.34,SW,232,0.0,0.0,72,0.00,,CLR,0.00,VWS V14.01,2013-02-02 00:11:00,
2013-02-01 16:16:00,42.3,34.3,30.34,SW,232,0.0,0.0,73,0.00,,CLR,0.00,VWS V14.01,2013-02-02 00:16:00,
2013-02-01 16:22:00,42.2,34.2,30.34,SW,232,0.0,0.0,73,0.00,,CLR,0.00,VWS V14.01,2013-02-02 00:22:00,
2013-02-01 16:27:00,42.1,34.1,30.34,SW,232,0.0,0.0,73,0.00,,CLR,0.00,VWS V14.01,2013-02-02 00:27:00,
2013-02-01 16:32:00,41.6,34.3,30.35,SW,232,0.0,0.0,75,0.00,,CLR,0.00,VWS V14.01,2013-02-02 00:32:00,
2013-02-01 16:37:00,41.3,34.0,30.35,SW,232,0.0,0.0,75,0.00,,CLR,0.00,VWS V14.01,2013-02-02 00:37:00,
2013-02-01 16:42:00,41.1,34.1,30.35,SW,232,0.0,0.0,76,0.00,,CLR,0.00,VWS V14.01,2013-02-02 00:42:00,
2013-02-01 16:47:00,40.8,33.8,30.35,SW,232,0.0,0.0,76,0.00,,CLR,0.00,VWS V14.01,2013-02-02 00:47:00,
2013-02-01 16:52:00,40.5,33.5,30.35,SW,232,0.0,0.0,76,0.00,,CLR,0.00,VWS V14.01,2013-02-02 00:52:00,
2013-02-01 16:57:00,39.8,33.5,30.35,SW,232,0.0,0.0,78,0.00,,CLR,0.00,VWS V14.01,2013-02-02 00:57:00,
2013-02-01 17:02:00,39.6,33.3,30.35,SW,232,0.0,0.0,78,0.00,,CLR,0.00,VWS V14.01,2013-02-02 01:02:00,
2013-02-01 17:07:00,38.6,32.3,30.35,SW,232,0.0,0.0,78,0.00,,CLR,0.00,VWS V14.01,2013-02-02 01:07:00,
2013-02-01 17:13:00,38.0,31.8,30.35,SW,232,0.0,0.0,78,0.00,,CLR,0.00,VWS V14.01,2013-02-02 01:13:00,
2013-02-01 17:18:00,37.6,32.3,30.36,SW,232,0.0,0.0,81,0.00,,CLR,0.00,VWS V14.01,2013-02-02 01:18:00,
2013-02-01 17:23:00,37.0,31.7,30.36,SW,232,0.0,0.0,81,0.00,,CLR,0.00,VWS V14.01,2013-02-02 01:23:00,
2013-02-01 17:28:00,36.8,31.5,30.36,SW,232,0.0,0.0,81,0.00,,CLR,0.00,VWS V14.01,2013-02-02 01:28:00,
2013-02-01 17:33:00,36.2,30.9,30.35,SW,232,0.0,0.0,81,0.00,,CLR,0.00,VWS V14.01,2013-02-02 01:33:00,
2013-02-01 17:38:00,35.7,31.4,30.35,SW,232,0.0,0.0,84,0.00,,CLR,0.00,VWS V14.01,2013-02-02 01:38:00,
2013-02-01 17:43:00,35.4,31.1,30.35,SW,232,0.0,0.0,84,0.00,,CLR,0.00,VWS V14.01,2013-02-02 01:43:00,
2013-02-01 17:48:00,35.0,30.7,30.35,SW,232,0.0,0.0,84,0.00,,CLR,0.00,VWS V14.01,2013-02-02 01:48:00,
2013-02-01 17:53:00,34.5,30.8,30.35,SW,232,0.0,0.0,86,0.00,,CLR,0.00,VWS V14.01,2013-02-02 01:53:00,
2013-02-01 17:58:00,34.2,30.7,30.35,SW,232,0.0,0.0,87,0.00,,CLR,0.00,VWS V14.01,2013-02-02 01:58:00,
2013-02-01 18:04:00,33.9,30.5,30.35,SW,232,0.0,0.0,87,0.00,,CLR,0.00,VWS V14.01,2013-02-02 02:04:00,
2013-02-01 18:09:00,33.5,30.0,30.35,SW,232,0.0,0.0,87,0.00,,CLR,0.00,VWS V14.01,2013-02-02 02:09:00,
2013-02-01 18:14:00,33.4,30.2,30.35,SW,232,0.0,0.0,88,0.00,,CLR,0.00,VWS V14.01,2013-02-02 02:14:00,
2013-02-01 18:19:00,33.1,29.9,30.35,SW,232,0.0,0.0,88,0.00,,CLR,0.00,VWS V14.01,2013-02-02 02:19:00,
2013-02-01 18:24:00,32.9,29.7,30.35,SW,232,0.0,0.0,88,0.00,,CLR,0.00,VWS V14.01,2013-02-02 02:24:00,
2013-02-01 18:29:00,32.5,29.4,30.35,SW,232,0.0,0.0,88,0.00,,CLR,0.00,VWS V14.01,2013-02-02 02:29:00,
2013-02-01 18:34:00,32.3,29.1,30.36,SW,232,0.0,0.0,88,0.00,,CLR,0.00,VWS V14.01,2013-02-02 02:34:00,
2013-02-01 18:39:00,32.0,28.9,30.36,SW,232,0.0,0.0,88,0.00,,CLR,0.00,VWS V14.01,2013-02-02 02:39:00,
2013-02-01 18:44:00,31.9,28.8,30.36,SW,232,0.0,0.0,88,0.00,,CLR,0.00,VWS V14.01,2013-02-02 02:44:00,
2013-02-01 18:50:00,31.4,28.5,30.36,SW,232,0.0,0.0,89,0.00,,CLR,0.00,VWS V14.01,2013-02-02 02:50:00,
2013-02-01 18:55:00,31.1,28.2,30.36,SW,232,0.0,0.0,89,0.00,,CLR,0.00,VWS V14.01,2013-02-02 02:55:00,
2013-02-01 19:00:00,31.1,28.2,30.36,SW,232,0.0,0.0,89,0.00,,CLR,0.00,VWS V14.01,2013-02-02 03:00:00,
2013-02-01 19:05:00,30.8,28.0,30.36,SW,232,0.0,0.0,89,0.00,,CLR,0.00,VWS V14.01,2013-02-02 03:05:00,
2013-02-01 19:10:00,30.8,28.0,30.36,SW,232,0.0,0.0,89,0.00,,CLR,0.00,VWS V14.01,2013-02-02 03:10:00,
2013-02-01 19:15:00,30.8,28.0,30.36,SW,232,0.0,0.0,89,0.00,,CLR,0.00,VWS V14.01,2013-02-02 03:15:00,
2013-02-01 19:20:00,30.7,28.4,30.37,SW,232,0.0,0.0,91,0.00,,CLR,0.00,VWS V14.01,2013-02-02 03:20:00,
2013-02-01 19:25:00,30.5,28.2,30.37,SW,232,0.0,0.0,91,0.00,,CLR,0.00,VWS V14.01,2013-02-02 03:25:00,
2013-02-01 19:30:00,30.5,28.2,30.37,SW,232,0.0,0.0,91,0.00,,CLR,0.00,VWS V14.01,2013-02-02 03:30:00,
2013-02-01 19:36:00,30.4,28.1,30.37,SW,232,0.0,0.0,91,0.00,,CLR,0.00,VWS V14.01,2013-02-02 03:36:00,
2013-02-01 19:41:00,30.3,28.0,30.37,SW,232,0.0,0.0,91,0.00,,CLR,0.00,VWS V14.01,2013-02-02 03:41:00,
2013-02-01 19:46:00,30.1,28.1,30.37,SW,232,0.0,0.0,92,0.00,,CLR,0.00,VWS V14.01,2013-02-02 03:46:00,
2013-02-01 19:51:00,30.1,28.1,30.37,SW,232,0.0,0.0,92,0.00,,CLR,0.00,VWS V14.01,2013-02-02 03:51:00,
2013-02-01 19:56:00,30.0,28.0,30.37,SW,232,0.0,0.0,92,0.00,,CLR,0.00,VWS V14.01,2013-02-02 03:56:00,
2013-02-01 20:01:00,30.0,28.0,30.37,SW,232,0.0,0.0,92,0.00,,CLR,0.00,VWS V14.01,2013-02-02 04:01:00,
2013-02-01 20:06:00,30.0,28.0,30.37,SW,232,0.0,0.0,92,0.00,,CLR,0.00,VWS V14.01,2013-02-02 04:06:00,
2013-02-01 20:12:00,30.0,28.0,30.37,SW,232,0.0,0.0,92,0.00,,CLR,0.00,VWS V14.01,2013-02-02 04:12:00,
2013-02-01 20:16:00,29.8,27.8,30.37,SW,232,0.0,0.0,92,0.00,,CLR,0.00,VWS V14.01,2013-02-02 04:16:00,
2013-02-01 20:22:00,29.8,27.8,30.37,SW,232,0.0,0.0,92,0.00,,CLR,0.00,VWS V14.01,2013-02-02 04:22:00,
2013-02-01 20:27:00,29.7,27.7,30.37,SW,232,0.0,0.0,92,0.00,,CLR,0.00,VWS V14.01,2013-02-02 04:27:00,
2013-02-01 20:32:00,29.2,27.2,30.38,SW,232,0.0,0.0,92,0.00,,CLR,0.00,VWS V14.01,2013-02-02 04:32:00,
2013-02-01 20:37:00,29.2,27.2,30.38,SW,232,0.0,0.0,92,0.00,,CLR,0.00,VWS V14.01,2013-02-02 04:37:00,
2013-02-01 20:42:00,29.1,27.1,30.38,SW,232,0.0,0.0,92,0.00,,CLR,0.00,VWS V14.01,2013-02-02 04:42:00,
2013-02-01 20:47:00,29.1,27.1,30.38,SW,232,0.0,0.0,92,0.00,,CLR,0.00,VWS V14.01,2013-02-02 04:47:00,
2013-02-01 20:52:00,28.9,26.9,30.38,SW,232,0.0,0.0,92,0.00,,CLR,0.00,VWS V14.01,2013-02-02 04:52:00,
2013-02-01 20:57:00,28.9,26.9,30.38,SW,232,0.0,0.0,92,0.00,,CLR,0.00,VWS V14.01,2013-02-02 04:57:00,
2013-02-01 21:00:00,28.6,26.6,30.38,SW,232,0.0,0.0,92,0.00,,CLR,0.00,VWS V14.01,2013-02-02 05:00:00,
2013-02-01 21:05:00,28.6,26.6,30.39,SW,232,0.0,0.0,92,0.00,,,0.00,VWS V14.01,2013-02-02 05:05:00,
2013-02-01 21:11:00,28.5,26.5,30.39,SW,232,0.0,0.0,92,0.00,,,0.00,VWS V14.01,2013-02-02 05:11:00,
2013-02-01 21:16:00,28.5,26.5,30.39,SW,232,0.0,0.0,92,0.00,,,0.00,VWS V14.01,2013-02-02 05:16:00,
2013-02-01 21:21:00,28.3,26.3,30.39,SW,232,0.0,0.0,92,0.00,,,0.00,VWS V14.01,2013-02-02 05:21:00,
2013-02-01 21:26:00,28.0,26.0,30.39,SW,232,0.0,0.0,92,0.00,,,0.00,VWS V14.01,2013-02-02 05:26:00,
2013-02-01 21:31:00,28.0,26.0,30.39,SW,232,0.0,0.0,92,0.00,,,0.00,VWS V14.01,2013-02-02 05:31:00,
2013-02-01 21:36:00,28.0,26.0,30.39,SW,232,0.0,0.0,92,0.00,,,0.00,VWS V14.01,2013-02-02 05:36:00,
2013-02-01 21:41:00,28.0,26.0,30.39,SW,232,0.0,0.0,92,0.00,,,0.00,VWS V14.01,2013-02-02 05:41:00,
2013-02-01 21:46:00,27.9,26.1,30.39,SW,232,0.0,0.0,93,0.00,,,0.00,VWS V14.01,2013-02-02 05:46:00,
2013-02-01 21:51:00,28.0,26.2,30.40,SW,232,0.0,0.0,93,0.00,,,0.00,VWS V14.01,2013-02-02 05:51:00,
2013-02-01 21:56:00,28.0,26.2,30.40,SW,232,0.0,0.0,93,0.00,,,0.00,VWS V14.01,2013-02-02 05:56:00,
2013-02-01 22:01:00,28.2,26.4,30.40,SW,232,0.0,0.0,93,0.00,,,0.00,VWS V14.01,2013-02-02 06:01:00,
2013-02-01 22:07:00,28.0,26.2,30.40,SW,232,0.0,0.0,93,0.00,,,0.00,VWS V14.01,2013-02-02 06:07:00,
2013-02-01 22:12:00,28.0,26.2,30.40,SW,232,0.0,0.0,93,0.00,,,0.00,VWS V14.01,2013-02-02 06:12:00,
2013-02-01 22:17:00,27.7,25.9,30.40,SW,232,0.0,0.0,93,0.00,,,0.00,VWS V14.01,2013-02-02 06:17:00,
2013-02-01 22:22:00,27.6,25.8,30.40,SW,232,0.0,0.0,93,0.00,,,0.00,VWS V14.01,2013-02-02 06:22:00,
2013-02-01 22:27:00,27.4,25.6,30.40,SW,232,0.0,0.0,93,0.00,,,0.00,VWS V14.01,2013-02-02 06:27:00,
2013-02-01 22:32:00,27.4,25.6,30.40,SW,232,0.0,0.0,93,0.00,,,0.00,VWS V14.01,2013-02-02 06:32:00,
2013-02-01 22:37:00,27.4,25.6,30.40,SW,232,0.0,0.0,93,0.00,,,0.00,VWS V14.01,2013-02-02 06:37:00,
2013-02-01 22:42:00,27.4,25.6,30.40,SW,232,0.0,0.0,93,0.00,,,0.00,VWS V14.01,2013-02-02 06:42:00,
2013-02-01 22:47:00,27.7,25.9,30.40,SW,232,0.0,0.0,93,0.00,,,0.00,VWS V14.01,2013-02-02 06:47:00,
2013-02-01 22:52:00,27.7,25.9,30.40,SW,232,0.0,0.0,93,0.00,,,0.00,VWS V14.01,2013-02-02 06:52:00,
2013-02-01 22:58:00,27.9,26.1,30.40,SW,232,0.0,0.0,93,0.00,,,0.00,VWS V14.01,2013-02-02 06:58:00,
2013-02-01 23:03:00,27.9,26.1,30.41,SW,232,0.0,0.0,93,0.00,,,0.00,VWS V14.01,2013-02-02 07:03:00,
2013-02-01 23:08:00,27.9,26.1,30.41,SW,232,0.0,0.0,93,0.00,,,0.00,VWS V14.01,2013-02-02 07:08:00,
2013-02-01 23:13:00,28.2,26.4,30.41,SW,232,0.0,0.0,93,0.00,,,0.00,VWS V14.01,2013-02-02 07:13:00,
2013-02-01 23:18:00,28.2,26.4,30.41,SW,232,0.0,0.0,93,0.00,,,0.00,VWS V14.01,2013-02-02 07:18:00,
2013-02-01 23:23:00,28.3,26.5,30.41,SW,232,0.0,0.0,93,0.00,,,0.00,VWS V14.01,2013-02-02 07:23:00,
2013-02-01 23:28:00,28.5,26.7,30.41,SW,232,0.0,0.0,93,0.00,,,0.00,VWS V14.01,2013-02-02 07:28:00,
2013-02-01 23:33:00,28.6,27.1,30.41,SW,232,0.0,0.0,94,0.00,,,0.00,VWS V14.01,2013-02-02 07:33:00,
2013-02-01 23:38:00,28.6,27.1,30.41,SW,232,0.0,0.0,94,0.00,,,0.00,VWS V14.01,2013-02-02 07:38:00,
2013-02-01 23:43:00,28.9,27.4,30.41,SW,232,0.0,0.0,94,0.00,,,0.00,VWS V14.01,2013-02-02 07:43:00,
2013-02-01 23:49:00,29.1,27.6,30.41,SW,232,0.0,0.0,94,0.00,,,0.00,VWS V14.01,2013-02-02 07:49:00,
2013-02-01 23:54:00,29.2,28.0,30.41,SW,232,0.0,0.0,95,0.00,,,0.00,VWS V14.01,2013-02-02 07:54:00,
2013-02-01 23:59:00,29.5,28.2,30.41,SW,232,0.0,0.0,95,0.00,,,0.00,VWS V14.01,2013-02-02 07:59:00,